Flag for U.S.A. Weather past 2 weeks in Vevay, Indiana, U.S.A.

Now
29 °F

Passing clouds.


Feels Like: 23 °F
Forecast: 30 / 52 °F
Wind: 6 mph from East

Location: Cincinnati / Northern Kentucky International Airport

Current Time: Dec 21, 2014 at 9:15:29 PM

Latest Report: Dec 21, 2014 at 8:52 PM


Visibility: 7 mi

Pressure: 30.16 "Hg

Humidity: 79%

Dew point: 23 °F

Location of VevayLocation

Historic Weather in Vevay — Graph

°F

Vevay temperature yesterday

Maximum temperature yesterday: 32 °F (at 12:52 PM)
Minimum temperature yesterday: 29 °F (at 7:52 AM)
Average temperature yesterday: 31 °F

Past Weeks' High & Low Weather Summary

 TemperatureHumidityPressure
High52 °F (Dec 16, 3:52 AM)87% (Dec 9, 8:00 PM)30.60 "Hg (Dec 9, 8:00 PM)
Low24 °F (Dec 12, 4:52 AM)43% (Dec 12, 3:52 PM)29.68 "Hg (Dec 16, 4:52 AM)
Average36 °F70%30.22 "Hg
* Reported Dec 6 7:52 PM — Dec 21 7:52 PM, Vevay, Weather by CustomWeather, © 2014

Note: Actual official high and low records may vary slightly from our data, if they occured in-between our weather recording intervals... More about our weather records

Advertising

Vevay weather history for previous 24 hours

 ConditionsComfort  
Time TempWeatherWind HumidityBarometerVisibility
7:52 PM
Dec 21
31 °FPassing clouds.6 mph73%30.18 "Hg8 mi
6:52 PM32 °FPassing clouds.7 mph69%30.17 "Hg8 mi
5:52 PM32 °FPassing clouds.6 mph73%30.17 "Hg9 mi
4:52 PM34 °FBroken clouds.6 mph67%30.19 "Hg8 mi
3:52 PM37 °FPartly sunny.7 mph62%30.19 "Hg10 mi
2:52 PM38 °FBroken clouds.7 mph60%30.19 "Hg10 mi
1:52 PM37 °FBroken clouds.9 mph62%30.22 "Hg10 mi
12:52 PM36 °FPartly sunny.7 mph64%30.25 "Hg9 mi
11:52 AM34 °FScattered clouds.8 mph67%30.29 "Hg8 mi
10:52 AM32 °FPartly sunny.8 mph69%30.31 "Hg7 mi
9:52 AM30 °FOvercast.6 mph72%30.33 "Hg6 mi
8:52 AM27 °FPartly sunny.3 mph78%30.32 "Hg5 mi
7:52 AM27 °FPassing clouds.5 mph75%30.31 "Hg6 mi
6:52 AM29 °FPassing clouds.8 mph72%30.31 "Hg10 mi
5:52 AM31 °FOvercast.No wind69%30.31 "Hg8 mi
4:52 AM31 °FOvercast.No wind69%30.30 "Hg8 mi
3:52 AM31 °FOvercast.3 mph69%30.31 "Hg10 mi
2:52 AM31 °FOvercast.No wind67%30.30 "Hg10 mi
1:52 AM32 °FOvercast.5 mph66%30.30 "Hg10 mi
12:52 AM32 °FOvercast.No wind66%30.30 "Hg10 mi
11:52 PM
Dec 20
32 °FOvercast.3 mph73%30.31 "Hg6 mi
10:52 PM32 °FOvercast.No wind75%30.30 "Hg5 mi
10:04 PM30 °FMostly cloudy.3 mph80%30.28 "Hg5 mi
9:52 PM32 °FMostly cloudy.No wind73%30.30 "Hg5 mi
Weather by CustomWeather, © 2014

See weather overviewHow to use our weather pages